STARLINK-30605, 58101

Orbit data source: Space-Track

STARLINK-30605, 58101 is a payload satellite owned by SpaceX/Seattle (US) in LEO that was launched on Sat, 21 Oct 2023 UTC via an FALCON 9 launch vehicle from the Air Force Western Test Range (AFWTR). Payload-class satellites include a variety of spacecraft equipped with specific instruments for various scientific and technological missions. These include communications satellites like Starlink; space stations such as the ISS; scientific satellites like the Hubble; Earth observation satellites from companies like Planet Labs, Umbra, and HawkEye 360; GPS; miniature CubeSats for education and research; and military/defense satellites.

Loading next visibility...
Identifier
58101, 2023-161E
Orbit
LEO
Country
Flag of USUS
Related business
Manufacturer
SpaceX/Seattle
Mission
Operational Commercial Communications
Bus & Motor
STARLINK V2M, Unknown motor
Mass
730 kg wet, ~700 kg dry
Launch date (UTC)
2023-10-21 (3 years ago)
Launch vehicle
FALCON 9
Launch site
Air Force Western Test Range (AFWTR)
Object type
Payload
Rocket body
Debris
Shape & HBR
Box + 2 Pan, 17.7 m
Radar Cross Section
33.884 m², Large (>1 m²)

Expand to show TLE details & history
Last TLE update: 2 days ago

TLE from 2 days ago
0 STARLINK-30605
1 58101U 23161E   26171.36736884 -.00002583  00000-0 -75161-4 0  9994
2 58101  53.1614  48.4940 0001319  93.6722 266.4430 15.30178045150149
Epoch: 2026-06-20T08:49Z
TLE epoch observation values (Epoch: 2026-06-20T08:49:00.667Z)
Latitude
-0.00001°
Longitude
7.65821°
Altitude
476.237 km
Speed
7.629 km/s
True Right ascension
03h 13m 58s
True Declination
0° 00' 00"
Sunlit
Object was in daylight at epoch
Visualization orbit readout
Latitude
Unknown
Longitude
Unknown
Altitude
Unknown
Speed
Unknown
Apparent Right ascension
Unknown
Apparent Declination
Unknown
Sunlit
N/A
Visualization observer readout
Local Sidereal Time
21:27:59
Azimuth
Unknown
Elevation
Unknown
Doppler factor
Unknown
Orbital elements
Apogee altitude
476.441 km
Perigee altitude
474.633 km
Semi-major axis
6,853.674 km
Eccentricity
0.00013
Inclination
53.1614°
RAAN
48.494°
Arg. of periapsis
93.6722°
True anomaly
266.42791°
Mean anomaly
266.443°
Eccentric anomaly
266.43546°
Mean motion
3.82523 °/min
Orbital period
94.11 mins
BSTAR
-0.000075161
Loading maneuver chart data...
Computing Atmospheric mass density...
Loading historical data...
Loading historical data...
Loading historical data...
Loading historical data...
Loading historical data...
Loading historical data...
Loading historical data...

Documentation

Showing up to 5 results
|